Las Cruces, NM

7:26 AM MDT on April 26, 2017 (GMT -0600)
Las Cruces International

Weather History for KLRU - June, 2013

Change the Weather History Date:

Saturday, June 15, 2013

  Actual Average Record
Temperature  
Mean Temperature 82 °F -  
Max Temperature 97 °F 91 °F 104 °F (2008)
Min Temperature 66 °F 63 °F 59 °F (2001)
Cooling Degree Days 16    
Growing Degree Days 32 (Base 50)    
Moisture  
Dew Point 47 °F    
Average Humidity 34    
Maximum Humidity 68    
Minimum Humidity 13    
Precipitation  
Precipitation 0.00 in - - ()
Sea Level Pressure  
Sea Level Pressure 30.05 in    
Wind  
Wind Speed 7 mph (SSE)    
Max Wind Speed 21 mph    
Max Gust Speed 34 mph    
Visibility 10 miles    
Events Rain    
Averages and records for this station are not official NWS values.
T = Trace of Precipitation, MM = Missing Value Source: NWS Daily Summary

Daily Weather History Graph

Daily Weather History Graph

Search for Another Location

Airport or City:

Trip Planner

Search our weather history database for the weather conditions in past years. The results will help you decide how hot, cold, wet, or windy it might be!

Date:

Astronomy

Jun. 15, 2013 Rise Set
Actual Time 6:00 AM MDT 8:16 PM MDT
Civil Twilight 5:32 AM MDT 8:44 PM MDT
Nautical Twilight 4:57 AM MDT 9:19 PM MDT
Astronomical Twilight 4:19 AM MDT 9:56 PM MDT
Moon 12:17 PM MDT (6/15) 12:11 AM MDT (6/15)
Length of Visible Light 15h 12m
Length of Day
14h 15m
Waxing Crescent, 40% of the Moon is Illuminated
Jun 15
Waxing Crescent
Jun 16
First Quarter
Jun 23
Full
Jun 29
Last Quarter
Jul 8
New

Hourly Weather History & Observations

Time (MDT) Temp. Heat Index Dew Point Humidity Pressure Visibility Wind Dir Wind Speed Gust Speed Precip Events Conditions
12:15 AM 75.6 °F - 53.4 °F 46% 30.04 in 10.0 mi SSE 6.9 mph - N/A Rain Light Rain
12:35 AM 76.1 °F - 48.7 °F 38% 30.04 in 10.0 mi South 8.1 mph - N/A   Scattered Clouds
12:55 AM 74.7 °F - 49.3 °F 41% 30.05 in 10.0 mi South 11.5 mph - N/A   Clear
1:15 AM 75.0 °F - 47.5 °F 38% 30.04 in 10.0 mi South 16.1 mph - N/A   Clear
1:35 AM 73.6 °F - 50.2 °F 44% 30.05 in 10.0 mi SSW 16.1 mph - N/A   Clear
1:55 AM 72.9 °F - 52.0 °F 48% 30.06 in 10.0 mi South 13.8 mph - N/A   Clear
2:15 AM 72.0 °F - 55.6 °F 56% 30.05 in 10.0 mi South 13.8 mph - N/A   Clear
2:35 AM 72.0 °F - 57.0 °F 59% 30.05 in 10.0 mi South 10.4 mph - N/A   Clear
2:55 AM 72.0 °F - 56.7 °F 58% 30.06 in 10.0 mi ESE 9.2 mph - N/A   Clear
3:15 AM 71.4 °F - 56.8 °F 60% 30.05 in 10.0 mi East 8.1 mph - N/A   Clear
3:35 AM 70.7 °F - 57.2 °F 62% 30.05 in 10.0 mi ESE 5.8 mph - N/A   Clear
3:55 AM 69.8 °F - 57.2 °F 64% 30.05 in 10.0 mi ESE 5.8 mph - N/A   Clear
4:15 AM 69.3 °F - 56.5 °F 64% 30.05 in 10.0 mi ESE 3.5 mph - N/A   Clear
4:35 AM 68.9 °F - 56.3 °F 64% 30.05 in 10.0 mi SSE 3.5 mph - N/A   Clear
4:55 AM 69.3 °F - 56.1 °F 63% 30.05 in 10.0 mi South 5.8 mph - N/A   Clear
5:15 AM 69.3 °F - 56.3 °F 63% 30.06 in 10.0 mi South 4.6 mph - N/A   Clear
5:35 AM 69.1 °F - 56.5 °F 64% 30.07 in 10.0 mi Calm Calm - N/A   Clear
5:55 AM 68.7 °F - 56.3 °F 64% 30.07 in 10.0 mi Calm Calm - N/A   Clear
6:15 AM 66.7 °F - 55.8 °F 68% 30.08 in 10.0 mi SW 3.5 mph - N/A   Clear
6:35 AM 66.2 °F - 55.4 °F 68% 30.08 in 10.0 mi Calm Calm - N/A   Clear
6:55 AM 67.5 °F - 55.6 °F 66% 30.08 in 10.0 mi North 3.5 mph - N/A   Clear
7:15 AM 71.2 °F - 56.3 °F 59% 30.08 in 10.0 mi Calm Calm - N/A   Clear
7:35 AM 73.0 °F - 56.7 °F 56% 30.09 in 10.0 mi Calm Calm - N/A   Clear
7:55 AM 74.1 °F - 56.3 °F 54% 30.09 in 10.0 mi East 3.5 mph - N/A   Clear
8:15 AM 74.7 °F - 56.3 °F 53% 30.09 in 10.0 mi Calm Calm - N/A   Clear
8:35 AM 75.4 °F - 56.1 °F 51% 30.10 in 10.0 mi Calm Calm - N/A   Clear
8:55 AM 77.7 °F - 55.6 °F 46% 30.10 in 10.0 mi Calm Calm - N/A   Clear
9:15 AM 78.3 °F - 54.5 °F 44% 30.10 in 10.0 mi Calm Calm - N/A   Clear
9:35 AM 79.5 °F - 54.9 °F 42% 30.10 in 10.0 mi SE 3.5 mph - N/A   Clear
9:55 AM 81.0 °F 80.5 °F 53.8 °F 39% 30.10 in 10.0 mi Calm Calm - N/A   Clear
10:15 AM 83.3 °F - 52.7 °F 35% 30.10 in 10.0 mi South 5.8 mph - N/A   Clear
10:35 AM 81.7 °F - 51.1 °F 34% 30.10 in 10.0 mi Calm Calm - N/A   Clear
10:55 AM 84.2 °F - 51.1 °F 32% 30.09 in 10.0 mi SSW 3.5 mph - N/A   Clear
11:15 AM 84.7 °F - 49.5 °F 29% 30.09 in 10.0 mi Calm Calm - N/A   Clear
11:35 AM 86.9 °F - 48.4 °F 26% 30.09 in 10.0 mi Calm Calm - N/A   Clear
11:55 AM 87.4 °F - 49.8 °F 27% 30.08 in 10.0 mi SSE 4.6 mph - N/A   Clear
12:15 PM 87.8 °F - 48.2 °F 25% 30.08 in 10.0 mi Calm Calm - N/A   Clear
12:35 PM 88.9 °F - 46.9 °F 23% 30.08 in 10.0 mi NNW 3.5 mph - N/A   Clear
12:55 PM 90.7 °F - 46.9 °F 22% 30.07 in 10.0 mi West 4.6 mph - N/A   Clear
1:15 PM 91.0 °F - 45.9 °F 21% 30.07 in 10.0 mi South 4.6 mph - N/A   Clear
1:35 PM 91.4 °F - 45.1 °F 20% 30.05 in 10.0 mi SE 3.5 mph - N/A   Clear
1:55 PM 93.4 °F - 42.8 °F 17% 30.04 in 10.0 mi SSE 3.5 mph - N/A   Clear
2:15 PM 95.4 °F - 44.1 °F 17% 30.03 in 10.0 mi SE 9.2 mph - N/A   Clear
2:35 PM 93.9 °F - 42.3 °F 17% 30.03 in 10.0 mi ESE 6.9 mph - N/A   Clear
2:55 PM 93.7 °F - 40.6 °F 16% 30.02 in 10.0 mi West 4.6 mph - N/A   Clear
3:15 PM 97.5 °F - 39.0 °F 13% 30.01 in 10.0 mi SSE 6.9 mph - N/A   Clear
3:35 PM 96.1 °F - 39.0 °F 14% 30.00 in 10.0 mi East 9.2 mph - N/A   Clear
3:55 PM 97.2 °F - 39.0 °F 13% 29.99 in 10.0 mi SSE 8.1 mph - N/A   Clear
4:15 PM 97.0 °F - 39.0 °F 13% 29.99 in 10.0 mi ESE 12.7 mph 17.3 mph N/A   Clear
4:35 PM 96.3 °F - 38.5 °F 13% 29.98 in 10.0 mi SE 4.6 mph 17.3 mph N/A   Clear
4:55 PM 97.0 °F - 38.7 °F 13% 29.98 in 10.0 mi ESE 13.8 mph 17.3 mph N/A   Clear
5:15 PM 97.3 °F - 38.7 °F 13% 29.97 in 10.0 mi East 10.4 mph 19.6 mph N/A   Clear
5:35 PM 97.7 °F - 39.2 °F 13% 29.96 in 10.0 mi SE 10.4 mph 17.3 mph N/A   Clear
5:55 PM 94.3 °F - 38.8 °F 14% 29.96 in 10.0 mi East 10.4 mph - N/A   Clear
6:15 PM 93.7 °F - 38.5 °F 15% 29.96 in 10.0 mi East 10.4 mph - N/A   Clear
6:35 PM 93.6 °F - 38.5 °F 15% 29.96 in 10.0 mi East 11.5 mph - N/A   Clear
6:55 PM 93.4 °F - 38.7 °F 15% 29.97 in 10.0 mi East 10.4 mph - N/A   Clear
7:15 PM 92.8 °F - 37.0 °F 14% 29.97 in 10.0 mi East 8.1 mph - N/A   Clear
7:35 PM 92.3 °F - 37.4 °F 15% 29.99 in 10.0 mi SE 5.8 mph - N/A   Clear
7:55 PM 91.4 °F - 36.3 °F 14% 29.99 in 10.0 mi SW 10.4 mph 21.9 mph N/A   Clear
8:15 PM 90.7 °F - 35.6 °F 14% 29.99 in 10.0 mi South 15.0 mph 24.2 mph N/A   Clear
8:35 PM 91.2 °F - 37.2 °F 15% 30.00 in 10.0 mi WSW 18.4 mph 26.5 mph N/A   Clear
8:55 PM 88.0 °F - 40.8 °F 19% 30.01 in 10.0 mi West 20.7 mph 34.5 mph N/A   Clear
9:15 PM 88.2 °F - 39.2 °F 18% 30.03 in 10.0 mi West 13.8 mph 18.4 mph N/A   Scattered Clouds
9:35 PM 87.3 °F - 37.8 °F 17% 30.05 in 10.0 mi West 11.5 mph - N/A   Scattered Clouds
9:55 PM 86.5 °F - 37.8 °F 18% 30.07 in 10.0 mi South 5.8 mph - N/A   Clear
10:15 PM 85.6 °F - 38.7 °F 19% 30.08 in 10.0 mi South 6.9 mph - N/A   Clear
10:35 PM 86.2 °F - 37.9 °F 18% 30.08 in 10.0 mi West 5.8 mph - N/A   Clear
10:55 PM 85.6 °F - 37.4 °F 18% 30.08 in 10.0 mi WNW 8.1 mph - N/A   Clear
11:15 PM 84.2 °F - 37.4 °F 19% 30.08 in 10.0 mi NW 8.1 mph - N/A   Clear
11:35 PM 83.3 °F - 37.4 °F 19% 30.08 in 10.0 mi NW 5.8 mph - N/A   Clear
11:55 PM 81.5 °F - 39.0 °F 22% 30.09 in 10.0 mi WNW 6.9 mph - N/A   Clear